Flugplatz Burg Feuerstein
 
.... wo jeder bestens aufgehoben ist! 

 

DSC04520

 


Täglich sind wir von 08.30 bis 12.30 Uhr und von 13.00 bis 16.45 Uhr unter 09194 - 79 75 75 

oder 

rund um die Uhr per Diese E-Mail-Adresse ist vor Spambots geschützt! Zur Anzeige muss JavaScript eingeschaltet sein! zu erreichen!

 

Flugbetrieb an jedem fliegbaren Tag von 9 Uhr bis 18 Uhr - nach Absprache auch flexibel darüber hinaus ! 

 


 
 

Wir bieten professionelle und trotzdem sehr günstige Ausbildung in 4 Sparten an:

Motorflug Motorsegler Segelflug Ultraleicht

Bei unseren Gebühren gibt keine „versteckten Kosten“ wie

  • Baustunden oder finanzielle Ausgleiche dafür
  • Verpflichtung zu Diensten oder finanzielle Ausgleiche dafür
  • Umschulungs- oder Typengebühren

Ebenso gibt es bei uns keinerlei zeitlicher Verpflichtungen zur Teilnahme am Flugbetrieb!

Kümmern Sie sich nur um Ihre fliegerischen Ambitionen – wir unterstützen Sie dabei professionell, individuell, zielorientiert und maximal flexibel!

Feuerstein News Ticker

Die ersten Schneeflocken sind schon vorhergesagt und es ist eine Frage der Zeit, bis der Winter vollends da ist und uns eine erste Schneedecke beschert! Sofern es einen Bedarf gibt,...


mehr lesen ...
0

Webcam Blick N

webcam 2

Webcam Blick NO

webcam 1

METAR EDDN

[Quelle: ADDS]
METAR
EDDN 160250Z 12005KT CAVOK M05/M08 Q1016 =
EDDN 152300Z 1600/1624 14008KT CAVOK BECMG 1609/1611 4000 -SN SCT007 OVC012 TEMPO 1611/1613 1200 SN BKN004 BECMG 1613/1615 6000 TEMPO 1615/1624 BKN007
TAF
EDDN 152300Z 1600/1624 14008KT CAVOK BECMG 1609/1611 4000 -SN SCT007 OVC012 TEMPO 1611/1613 1200 SN BKN004 BECMG 1613/1615 6000 TEMPO 1615/1624 BKN007 =
SR / SS: 07:07 / 15:15 UTC (EDQE 2018-12-16)

Wetter EDQE


Das Wetter heute
Das Wetter morgen